Regional Weather Roundup
Issued by NWS Sioux Falls, SD

Home | Current Version | Previous Version | Text Only | Print | Product List | Glossary Off
Versions: 1 2 3 4 5 6 7 8 9 10 11 12 13 14 15 16 17 18 19 20 21 22 23 24 25 26 27 28 29 30 31 32 33 34 35 36 37 38 39 40 41 42 43 44 45 46 47 48 49 50

000
ASUS43 KFSD 201710
RWRFSD

WEATHER ROUNDUP FOR SE SOUTH DAKOTA/SW MINNESOTA/NW IOWA
NATIONAL WEATHER SERVICE SIOUX FALLS SD
1200 PM CDT MON OCT 20 2014

NOTE: "FAIR" INDICATES FEW OR NO CLOUDS BELOW 12,000 FEET WITH NO
SIGNIFICANT WEATHER AND OR OBSTRUCTIONS TO VISIBILITY.


SDZ038>040-050-052>070-201800-
SOUTHEAST SOUTH DAKOTA

CITY           SKY/WX    TMP DP  RH WIND       PRES   REMARKS
CHAMBERLAIN    SUNNY     63  40  42 S5        30.11F
HURON          SUNNY     63  38  39 VRB3      30.10F
MADISON        FAIR      64  37  36 NW9G16    30.09F
MITCHELL       SUNNY     64  41  42 CALM      30.11F
SIOUX FALLS    MOSUNNY   66  43  43 N6        30.08F
WINNER         FAIR      69  37  30 S10       30.10F
YANKTON        SUNNY     63  45  51 W7        30.11S
$$

MNZ071-072-080-081-089-090-097-098-201800-
SOUTHWEST MINNESOTA

CITY           SKY/WX    TMP DP  RH WIND       PRES   REMARKS
FAIRMONT       SUNNY     63  37  39 N13       30.04S
JACKSON        SUNNY     64  37  36 NW9G18    30.06S
LUVERNE        SUNNY     64  37  36 N6        30.09S
MARSHALL       SUNNY     61  39  44 N10       30.06S
MONTEVIDEO     SUNNY     63  45  51 NW9       30.06F
PIPESTONE      SUNNY     63  39  42 N3        30.07F
REDWOOD FALLS  SUNNY     62  42  47 N7        30.04F
TRACY          SUNNY     63  42  45 N7        30.07S
WINDOM         SUNNY     63  39  42 N12       30.05S
WORTHINGTON    SUNNY     63  39  42 N12       30.08S
$$

IAZ001>003-012>014-020>022-031-032-NEZ013-014-SDZ071-201800-
NORTHWEST IOWA

CITY           SKY/WX    TMP DP  RH WIND       PRES   REMARKS
CHEROKEE       SUNNY     63  43  47 NW8       30.08S
DENISON        SUNNY     64  43  45 NW10      30.06F
ESTHERVILLE    SUNNY     65  40  39 NW12      30.04F
LE MARS        SUNNY     64  41  42 N7G15     30.09F
ORANGE CITY    SUNNY     64  43  45 NW10      30.08F
SHELDON        SUNNY     63  41  45 NW6G14    30.07F
SIOUX CITY     SUNNY     65  43  44 N6        30.10F
SPENCER        SUNNY     65  42  43 N12       30.06F
STORM LAKE     SUNNY     64  41  42 NW10G17   30.08S
$$

ABBREVIATIONS USED IN REMARKS
   TC - TEMPERATURE IN CELSIUS
  WCI - WIND CHILL INDEX
   HX - HEAT INDEX
  VSB - VISIBILITY




USA.gov is the U.S. government's official web portal to all federal, state and local government web resources and services.